Regional Weather Roundup
Issued by NWS Green Bay, WI

Home | Current Version | Previous Version | Graphics & Text | Print | Product List | Glossary Off
Versions: 1 2 3 4 5 6 7 8 9 10 11 12 13 14 15 16 17 18 19 20 21 22 23 24 25 26 27 28 29 30 31 32 33 34 35 36 37 38 39 40 41 42 43 44 45 46 47 48 49 50

000
ASUS43 KGRB 211359
RWRGRB

NORTH-CENTRAL AND NORTHEAST WISCONSIN REGIONAL WEATHER ROUNDUP
NATIONAL WEATHER SERVICE GREEN BAY WI
900 AM CDT SUN SEP 21 2014

WIZ005-009-010>012-018-019-211500-
NORTH CENTRAL WISCONSIN

CITY           SKY/WX    TMP DP  RH WIND       PRES   REMARKS
IRONWOOD       CLOUDY    46  45  93 N9        29.97R
MANITOWISH WTR NOT AVBL
ARBOR VITAE    NOT AVBL
EAGLE RIVER    NOT AVBL
LAND O LAKES   NOT AVBL
RHINELANDER    PTSUNNY   48  44  86 N12G21    29.91R
PHILLIPS       NOT AVBL
ANTIGO         NOT AVBL
TOMAHAWK       NOT AVBL
MERRILL        NOT AVBL
$$

WIZ013-073-211500-
NORTHEAST WISCONSIN

CITY           SKY/WX    TMP DP  RH WIND       PRES   REMARKS
IRON MOUNTAIN  CLOUDY    51  45  79 N16G26    29.84R
MARINETTE      CLOUDY    54  48  82 N15       29.79R
$$

WIZ017-030-035>037-045-211500-
CENTRAL WISCONSIN

CITY           SKY/WX    TMP DP  RH WIND       PRES   REMARKS
MEDFORD        NOT AVBL
WAUSAU         CLOUDY    54  51  90 N14G21    29.87R
MOSINEE        CLOUDY    54  54 100 MISG      29.89R
MARSHFIELD     LGT RAIN  56  54  93 N13       29.90R FOG
WISC RAPIDS    CLOUDY    56  53  90 NW9       29.89R
STEVENS POINT  NOT AVBL
WAUPACA        NOT AVBL
SHAWANO        NOT AVBL
CLINTONVILLE   NOT AVBL
$$

WIZ038-039-048-051-211500-
FOX VALLEY

CITY           SKY/WX    TMP DP  RH WIND       PRES   REMARKS
NWS GREEN BAY  LGT RAIN  56  53  90 N12       29.80R
APPLETON       NOT AVBL
OSHKOSH        CLOUDY    57  54  89 NW16      29.81R
FOND DU LAC    RAIN      55  52  89 N13       29.81R FOG
$$

WIZ022-050-052-211500-
EAST CENTRAL WISCONSIN

CITY           SKY/WX    TMP DP  RH WIND       PRES   REMARKS
STURGEON BAY   CLOUDY    54  48  82 N18G32    29.78R
MANITOWOC      NOT AVBL
SHEBOYGAN      CLOUDY    57  53  86 NW15      29.77R
$$

LMZ563-521-522-541>543-211500-
LAKESHORE

STATION/POSITION TIME  TEMP    WIND        PRES    VSBY  WAVE
                       AIR SEA DIR/SP/G                  HT/PER
                 (UTC) (F)     (DEG/KT/KT) (MB)    (MI)  (FT/S)
SHEBOYGAN LKSHOR 1300   56 52  300/ 13/ 16 1006.8R
KEWAUNEE LKSHORE 1300   56     330/ 10/ 17 1006.3R
NORTHPORT PIER   1300   54     340/ 27/ 34 1007.5R
N MID LAKE BUOY  1300   55 58  350/ 23/ 27 1004.3R         3/ 5
SISTER BAY LKSHO 1300          360/ 27/ 33   N/A
CHAMBERS ISLAND  1300   54     330/ 22/ 28 1008.1R
MENOMINEE LKSHOR 1300   54     330/ 17/ 20 1008.8R
$$


USA.gov is the U.S. government's official web portal to all federal, state and local government web resources and services.